Hourly Data Report for September 05, 2017

All times are specified in Local Standard Time (LST). Add 1 hour to adjust for Daylight Saving Time where and when it is observed.

MISCOU ISLAND (AUT)
NEW BRUNSWICK

48°00'32.002" N
64°29'39.008" W
4.00 m
8103050
71719
WMI

Download Data

Hourly Data (September 2017)
Hourly Data Report for September 5, 2017
Temp Definition
°C
Dew Point Temp Definition
°C
Rel Hum Definition
%
Wind Dir Definition
10's deg

Wind Spd Definition
km/h
Visibility Definition
km
Stn Press Definition
kPa
Hmdx Definition


Wind Chill Definition


Weather Definition


TIME
00:00 16.0 12.9 82 20 14   100.43     LegendNANA
01:00 15.7 13.3 86 18 13   100.39     LegendNANA
02:00 15.1 13.5 90 18 14   100.35     LegendNANA
03:00 14.4 12.7 90 19 14   100.34     LegendNANA
04:00 14.9 12.9 88 18 9   100.32     LegendNANA
05:00 15.8 13.6 87 19 17   100.27     LegendNANA
06:00 16.1 13.4 84 19 19   100.33     LegendNANA
07:00 16.5 13.9 84 19 25   100.29     LegendNANA
08:00 17.5 14.4 82 18 27   100.26     LegendNANA
09:00 18.7 15.0 79 19 28   100.26     LegendNANA
10:00 20.4 15.6 74 20 26   100.25 25   LegendNANA
11:00 21.1 15.9 72 20 27   100.26 26   LegendNANA
12:00 21.3 16.0 72 21 19   100.32 26   LegendNANA
13:00 23.7 16.4 64 21 26   100.32 29   LegendNANA
14:00 23.4 16.1 64 24 26   100.38 28   LegendNANA
15:00 22.8 16.2 66 23 18   100.43 28   LegendNANA
16:00 21.0 15.4 70 25 17   100.52 25   LegendNANA
17:00 20.0 15.5 75 23 12   100.57     LegendNANA
18:00 19.8 15.6 77 24 11   100.62     LegendNANA
19:00 18.3 15.7 84 18 8   100.70     LegendNANA
20:00 19.1 16.6 86 18 9   100.76     LegendNANA
21:00 18.9 16.8 88 18 15   100.84     LegendNANA
22:00 18.9 16.8 88 20 11   100.84     LegendNANA
23:00 18.4 16.3 88 20 6   100.83     LegendNANA

Notes on Data Quality.

Legend

  • E = Estimated
  • M = Missing
  • NA = Not Available
  • ‡ = Partner data that is not subject to review by the National Climate Archives
Date modified: